[[{"header":{"parameterUnit":"m.s-1","parameterCategory":1,"la1":30.2991,"la2":30.254,"lo1":-89.0895,"lo2":-89.0444,"dy":0.0017,"dx":0.0017,"nx":28,"ny":28,"refTime":"2025-08-20T21:00:00:Z","depth":0,"parameterNumber":2,"parameterNumberName":"U-component_of_WINDS"},"data":[0,0,0,0,0,0,0,0,0,0,0,0,0,0,0,0,0,0,0,0,0,0,0,0,0,0,0,0,0,0,0,0,0,0,0,0,0,0,0,0,0,0,0,0,0,0,0,0,0,0,0,0,0,0,0,0,0,0,2.163,2.163,0,2.1562,2.1562,2.1561,2.1551,2.1551,2.1552,2.1553,2.1478,2.1475,2.1473,0,0,0,0,0,0,0,0,0,0,0,0,0,2.1746,2.1744,2.163,2.163,2.1629,2.1562,2.1562,2.1561,2.1551,2.1551,2.1552,2.1553,2.1479,2.1476,2.1472,0,0,0,0,0,0,0,0,0,0,0,0,0,2.1688,2.1743,2.1631,2.1616,2.1614,2.1563,2.1561,2.156,2.1551,2.1551,2.1552,2.1553,2.148,2.1476,2.1472,2.1429,0,0,2.146,2.1459,0,0,0,0,0,0,0,0,2.1692,2.1684,2.1619,2.1617,2.1615,2.1566,2.1575,2.1516,2.155,2.1574,2.1553,2.1554,2.1506,2.15,2.1485,2.1425,2.1422,2.146,2.1457,2.1456,2.1455,0,0,0,0,0,0,0,2.1696,2.1687,2.1603,2.1618,2.1615,2.1611,2.1604,2.1564,2.1536,2.1572,2.1572,2.1564,2.1505,2.1489,2.1483,2.1421,2.146,2.1457,2.1454,2.1453,2.1321,2.132,0,0,0,0,0,0,2.1703,2.1691,2.1606,2.1601,2.1657,2.1608,2.16,2.1581,2.1536,2.153,2.1563,2.1564,2.1495,2.1488,2.1481,2.1426,2.1456,2.1452,2.145,2.1322,2.1321,2.1319,0,0,0,0,0,0,2.1706,2.1696,2.1608,2.1646,2.1634,2.1605,2.1583,2.1579,2.1563,2.1529,2.1523,2.1552,2.1495,2.1486,2.1442,2.1423,2.145,2.1447,2.1324,2.1322,2.132,2.1318,0,0,0,0,0,0,2.1709,2.1697,2.1682,2.1645,2.1632,2.1572,2.1582,2.1577,2.1557,2.1557,2.1517,2.1512,2.1495,2.1448,2.1438,2.1419,2.1444,2.1325,2.1323,2.1321,2.1319,2.1316,2.1313,0,0,0,0,0,2.1713,2.1683,2.1681,2.1671,2.1613,2.1572,2.1564,2.1547,2.1555,2.1539,2.1517,2.1513,2.1427,2.1443,2.1432,2.1411,2.1326,2.1323,2.1321,2.1321,2.1317,2.1314,0,0,0,0,0,0,2.1716,2.1678,2.1675,2.1633,2.1606,2.157,2.1549,2.1544,2.1513,2.1514,2.1493,2.1484,2.1441,2.1422,2.144,2.1366,2.1377,2.1372,2.1381,2.1377,2.1374,2.1379,2.1441,0,0,0,0,0,2.1712,2.1683,2.1651,2.1616,2.1603,2.1578,2.1559,2.1549,2.1519,2.1507,2.1483,2.1452,2.1419,2.1397,2.1364,2.1317,2.1307,2.1297,2.1294,2.1292,2.1287,2.1259,2.1254,2.1311,2.1311,2.1311,0,0,2.1702,2.1678,2.1661,2.1616,2.1594,2.1563,2.1568,2.1535,2.1511,2.1502,2.1459,2.1439,2.1404,2.1358,2.1337,2.1341,2.1269,2.1288,2.1287,2.1283,2.1256,2.1251,2.1246,2.1309,2.1309,2.131,0,0,2.1669,2.1649,2.1617,2.1595,2.1562,2.1546,2.1538,2.1503,2.149,2.1447,2.1439,2.1409,2.1352,2.1327,2.1306,2.1263,2.1257,2.1253,2.1237,2.121,2.1205,2.1201,2.1184,2.1179,2.1248,2.1248,2.1248,0,2.1661,2.1616,2.1601,2.1569,2.1548,2.1539,2.1506,2.1485,2.1442,2.1427,2.1433,2.136,2.1335,2.1283,2.1272,2.1257,2.1245,2.1257,2.1208,2.1203,2.1199,2.1183,2.1177,2.1248,2.1248,2.1248,2.1248,0,2.1607,2.1576,2.1554,2.1514,2.1491,2.1458,2.1437,2.1415,2.1406,2.1388,2.1343,2.1314,2.1275,2.1261,2.1252,2.1207,2.121,2.1212,2.1222,2.1193,2.1178,2.1171,2.1247,2.1248,2.1248,2.1248,0,0,2.1574,2.1527,2.1519,2.15,2.1463,2.1437,2.1403,2.1366,2.1346,2.1317,2.1286,2.1237,2.1239,2.1216,2.1203,2.118,2.1145,2.1184,2.1183,2.1177,2.1092,2.109,2.1083,2.1142,2.1141,2.114,2.1094,0,2.1536,2.1477,2.1462,2.1411,2.138,2.1371,2.1341,2.1313,2.1296,2.1266,2.1245,2.1211,2.1216,2.1201,2.1178,2.1155,2.1128,2.1158,2.1111,2.111,2.112,2.1075,2.1073,2.1032,2.1088,2.1087,2.1086,0,2.1484,2.1455,2.1401,2.1367,2.1353,2.1327,2.1291,2.1263,2.123,2.1219,2.1193,2.1183,2.1144,2.1157,2.1103,2.1124,2.1103,2.1089,2.1087,2.1081,2.1096,2.1067,2.1019,2.1012,2.1077,2.1077,2.1078,0,2.1464,2.1411,2.1372,2.1356,2.1315,2.1297,2.1278,2.1247,2.1225,2.1193,2.1178,2.1141,2.1121,2.1092,2.1071,2.1082,2.1018,2.1029,2.1005,2.1006,2.0992,2.0993,2.0938,2.098,2.098,2.0981,2.0981,0,2.1423,2.139,2.1363,2.1338,2.13,2.1282,2.1245,2.1225,2.1198,2.1168,2.1157,2.1129,2.1103,2.1071,2.1054,2.1011,2.1002,2.099,2.0986,2.0991,2.0992,2.0977,2.0978,2.0979,2.0979,2.098,2.098,0,2.1395,2.1375,2.1331,2.1296,2.1286,2.126,2.1229,2.1203,2.1185,2.1147,2.1137,2.1108,2.1069,2.1046,2.0997,2.0985,2.0937,2.0934,2.0948,2.0946,2.0924,2.0926,2.0857,2.0846,2.0896,2.0896,2.0895,0,2.137,2.1345,2.1307,2.1287,2.1269,2.1237,2.1214,2.1195,2.1172,2.1132,2.1111,2.1072,2.104,2.0978,2.0951,2.0913,2.0908,2.0887,2.0903,2.0908,2.0907,2.0908,2.0905,2.0884,2.0884,2.0883,2.0883,0,2.1327,2.1318,2.1288,2.1254,2.1228,2.1199,2.1171,2.1155,2.113,2.1104,2.1065,2.104,2.099,2.095,2.091,2.0888,2.088,2.0878,2.0871,2.0875,2.0884,2.0877,2.094,2.088,2.088,2.088,2.0881,2.0881,2.1299,2.1275,2.1245,2.1211,2.1188,2.1161,2.1135,2.1114,2.1082,2.1041,2.103,2.0989,2.0955,2.09,2.0877,2.0843,2.0846,2.0836,2.0833,2.083,2.0829,2.089,2.0836,2.0836,2.0836,2.0836,2.0836,0,2.1255,2.1235,2.1204,2.1165,2.1137,2.1134,2.1102,2.1078,2.1043,2.1013,2.0981,2.0935,2.0897,2.0867,2.0826,2.0805,2.08,2.0794,2.0795,2.079,2.0829,2.0839,2.0799,2.0799,2.0799,2.0799,2.0799,2.0799,2.1229,2.1188,2.1176,2.1123,2.1102,2.1063,2.1045,2.1019,2.0995,2.0945,2.0913,2.0894,2.0863,2.082,2.0784,2.0776,2.0761,2.0756,2.0747,2.0784,2.0788,2.0791,2.0801,2.0753,2.0753,2.0711,2.0711,2.071]},{"header":{"parameterUnit":"m.s-1","parameterCategory":1,"la1":30.2991,"la2":30.254,"lo1":-89.0895,"lo2":-89.0444,"dy":0.0017,"dx":0.0017,"nx":28,"ny":28,"refTime":"2025-08-20T21:00:00:Z","depth":0,"parameterNumber":3,"parameterNumberName":"V-component_of_WINDS"},"data":[0,0,0,0,0,0,0,0,0,0,0,0,0,0,0,0,0,0,0,0,0,0,0,0,0,0,0,0,0,0,0,0,0,0,0,0,0,0,0,0,0,0,0,0,0,0,0,0,0,0,0,0,0,0,0,0,0,0,-1.5767,-1.5764,0,-1.5512,-1.5509,-1.5506,-1.5302,-1.53,-1.5297,-1.5296,-1.5025,-1.502,-1.5015,0,0,0,0,0,0,0,0,0,0,0,0,0,-1.6069,-1.6064,-1.5767,-1.5764,-1.5761,-1.5512,-1.5509,-1.5505,-1.5302,-1.5299,-1.5297,-1.5295,-1.5027,-1.5021,-1.5014,0,0,0,0,0,0,0,0,0,0,0,0,0,-1.5888,-1.6063,-1.5767,-1.5629,-1.5615,-1.5513,-1.5508,-1.5504,-1.5302,-1.5299,-1.5296,-1.5293,-1.5029,-1.5021,-1.5013,-1.5025,0,0,-1.4989,-1.4986,0,0,0,0,0,0,0,0,-1.5899,-1.5877,-1.5653,-1.5639,-1.5622,-1.5435,-1.5516,-1.5343,-1.5303,-1.5421,-1.5295,-1.5292,-1.5164,-1.5144,-1.5103,-1.5013,-1.5001,-1.4988,-1.4984,-1.498,-1.4978,0,0,0,0,0,0,0,-1.5911,-1.5887,-1.5665,-1.565,-1.5631,-1.5577,-1.5548,-1.5482,-1.5312,-1.541,-1.5395,-1.5368,-1.5154,-1.5111,-1.5095,-1.4997,-1.4989,-1.4981,-1.4977,-1.4973,-1.4902,-1.4905,0,0,0,0,0,0,-1.5947,-1.5899,-1.5674,-1.5658,-1.5756,-1.5574,-1.5542,-1.5498,-1.5312,-1.5281,-1.5371,-1.5359,-1.5126,-1.5105,-1.5085,-1.5086,-1.498,-1.4973,-1.4968,-1.4899,-1.4903,-1.4906,0,0,0,0,0,0,-1.5954,-1.5928,-1.5684,-1.5774,-1.5739,-1.5572,-1.5525,-1.5495,-1.5451,-1.5283,-1.525,-1.5359,-1.5123,-1.5096,-1.5042,-1.5074,-1.4969,-1.4962,-1.4896,-1.49,-1.4904,-1.509,0,0,0,0,0,0,-1.5963,-1.5932,-1.5937,-1.5776,-1.5735,-1.5649,-1.5527,-1.5492,-1.5439,-1.5422,-1.5262,-1.5233,-1.5118,-1.5055,-1.5034,-1.5061,-1.4956,-1.4892,-1.4898,-1.4903,-1.5081,-1.5101,-1.5118,0,0,0,0,0,-1.5975,-1.5998,-1.5939,-1.5913,-1.5738,-1.5651,-1.5628,-1.5498,-1.5443,-1.5445,-1.5336,-1.5238,-1.5074,-1.5051,-1.5026,-1.5051,-1.489,-1.4896,-1.4903,-1.5072,-1.5097,-1.5117,0,0,0,0,0,0,-1.6164,-1.5974,-1.5906,-1.5879,-1.5783,-1.5617,-1.5616,-1.5528,-1.5444,-1.5431,-1.527,-1.5236,-1.5199,-1.5119,-1.5097,-1.5052,-1.4969,-1.4971,-1.5107,-1.5128,-1.5146,-1.5167,-1.4949,0,0,0,0,0,-1.6204,-1.6152,-1.5987,-1.5978,-1.5934,-1.5785,-1.5741,-1.565,-1.5543,-1.5501,-1.5388,-1.5286,-1.5211,-1.5164,-1.5086,-1.5068,-1.5029,-1.5072,-1.5091,-1.5107,-1.511,-1.5093,-1.511,-1.4927,-1.4927,-1.4927,0,0,-1.6283,-1.6173,-1.6149,-1.6014,-1.5929,-1.5877,-1.5751,-1.5701,-1.566,-1.5492,-1.5436,-1.5349,-1.5224,-1.5188,-1.5166,-1.512,-1.5152,-1.5115,-1.5129,-1.5123,-1.5102,-1.5119,-1.5135,-1.4932,-1.4931,-1.493,0,0,-1.6401,-1.6313,-1.6296,-1.6215,-1.6089,-1.5989,-1.5985,-1.5832,-1.577,-1.5711,-1.5584,-1.5531,-1.5405,-1.5321,-1.5262,-1.5349,-1.5255,-1.5327,-1.5424,-1.5409,-1.5424,-1.5436,-1.5466,-1.5479,-1.5331,-1.5331,-1.5332,0,-1.6515,-1.6434,-1.6298,-1.6256,-1.6199,-1.6048,-1.6029,-1.5954,-1.5809,-1.5772,-1.5723,-1.5562,-1.5467,-1.5409,-1.5431,-1.5388,-1.5377,-1.5345,-1.5433,-1.5444,-1.5453,-1.548,-1.5492,-1.5341,-1.534,-1.5339,-1.5338,0,-1.658,-1.6525,-1.6526,-1.6393,-1.6336,-1.6306,-1.6163,-1.6121,-1.6034,-1.5939,-1.588,-1.576,-1.5656,-1.5634,-1.5548,-1.5564,-1.5539,-1.5464,-1.5377,-1.5483,-1.5506,-1.5515,-1.5355,-1.5352,-1.5349,-1.5346,0,0,-1.681,-1.6604,-1.6606,-1.6544,-1.6394,-1.6348,-1.6309,-1.621,-1.6177,-1.6081,-1.6043,-1.5941,-1.587,-1.5803,-1.5705,-1.5693,-1.5769,-1.5618,-1.5613,-1.5651,-1.5778,-1.5837,-1.5852,-1.5706,-1.5707,-1.5708,-1.5789,0,-1.6905,-1.6832,-1.6708,-1.6673,-1.6621,-1.6476,-1.6442,-1.6345,-1.6254,-1.6193,-1.6091,-1.6022,-1.5934,-1.5893,-1.5874,-1.5765,-1.5793,-1.5756,-1.5667,-1.5665,-1.5704,-1.5863,-1.5925,-1.6007,-1.5797,-1.5798,-1.5799,0,-1.7006,-1.6922,-1.6884,-1.6738,-1.6711,-1.6684,-1.6582,-1.6527,-1.6413,-1.6347,-1.6274,-1.6168,-1.6116,-1.6037,-1.5963,-1.5941,-1.5896,-1.5837,-1.5837,-1.5824,-1.574,-1.5855,-1.603,-1.6043,-1.5812,-1.5811,-1.581,0,-1.7179,-1.7056,-1.7017,-1.6968,-1.6797,-1.6781,-1.6708,-1.6591,-1.6539,-1.6449,-1.6413,-1.6317,-1.6265,-1.6192,-1.6061,-1.6016,-1.6001,-1.5911,-1.5943,-1.5947,-1.5947,-1.5949,-1.6119,-1.5918,-1.5918,-1.5918,-1.5918,0,-1.7298,-1.728,-1.7093,-1.7069,-1.7044,-1.69,-1.6878,-1.6791,-1.6689,-1.6643,-1.651,-1.6469,-1.63,-1.6238,-1.6135,-1.6089,-1.6066,-1.601,-1.5983,-1.6022,-1.603,-1.5991,-1.5982,-1.5921,-1.592,-1.592,-1.5919,0,-1.7488,-1.7362,-1.731,-1.7153,-1.7113,-1.7102,-1.6965,-1.6935,-1.6837,-1.6781,-1.6759,-1.6604,-1.6524,-1.6387,-1.6267,-1.6198,-1.6171,-1.6125,-1.6212,-1.6195,-1.6236,-1.6234,-1.6387,-1.6399,-1.6192,-1.6194,-1.6196,0,-1.7573,-1.7556,-1.7399,-1.7361,-1.7294,-1.7234,-1.7181,-1.7038,-1.6987,-1.6856,-1.6841,-1.6752,-1.6674,-1.6553,-1.6427,-1.6334,-1.6284,-1.6344,-1.6269,-1.631,-1.6285,-1.6289,-1.6286,-1.6362,-1.6365,-1.6367,-1.6369,0,-1.7737,-1.7676,-1.7607,-1.7516,-1.7458,-1.7379,-1.7292,-1.7267,-1.7104,-1.7053,-1.6973,-1.6912,-1.6791,-1.6704,-1.6593,-1.6513,-1.6414,-1.6394,-1.6396,-1.6437,-1.6489,-1.6462,-1.6259,-1.6391,-1.6389,-1.6387,-1.6386,-1.6385,-1.7876,-1.7855,-1.7742,-1.7669,-1.759,-1.7512,-1.7477,-1.7375,-1.7306,-1.72,-1.7118,-1.7043,-1.6926,-1.6768,-1.6694,-1.6631,-1.6585,-1.6589,-1.659,-1.6594,-1.6609,-1.6499,-1.661,-1.6609,-1.6608,-1.6608,-1.6607,0,-1.8034,-1.7955,-1.7889,-1.7775,-1.7717,-1.7631,-1.7531,-1.7487,-1.7425,-1.7326,-1.7253,-1.7159,-1.7074,-1.6942,-1.6845,-1.6819,-1.6771,-1.6799,-1.6799,-1.6782,-1.6655,-1.6663,-1.6839,-1.6839,-1.6839,-1.6839,-1.6839,-1.6839,-1.811,-1.807,-1.7996,-1.7913,-1.7831,-1.7761,-1.7711,-1.7637,-1.7558,-1.7462,-1.7392,-1.7307,-1.7194,-1.7088,-1.7004,-1.6967,-1.6937,-1.698,-1.6929,-1.6813,-1.6791,-1.6771,-1.6777,-1.6975,-1.6975,-1.706,-1.7061,-1.7062]}]]